Simultaneous Nadir Overpasses (SNOs) Predictions

Prediction of SNOs between LANDSAT-8 and METOP-A Satellite Orbit:

Table of predicted SNOs for the next 14.0 days since TLE Epoch: 10/4/2015
Index Date (LANDSAT-8) Time (LANDSAT-8) Lat,Lon (LANDSAT-8) SZA (LANDSAT-8 ) Date (METOP-A) Time (METOP-A) Lat,Lon (METOP-A) SZA (METOP-A ) Distance(km) Time Diff (sec)
1 10/05/2015 09:41:08 81.24, 76.58 88.41 10/05/2015 09:40:49 81.24, 76.58 88.40 0.50 19
2 10/05/2015 10:30:34 -81.26,-115.48 91.54 10/05/2015 10:31:28 -81.26,-115.48 91.51 0.36 54
3 10/08/2015 05:15:22 81.24, 143.04 89.50 10/08/2015 05:15:08 81.24, 143.04 89.50 0.53 14
4 10/08/2015 06:04:48 -81.26, -48.99 90.44 10/08/2015 06:05:47 -81.26, -49.00 90.41 0.32 59
5 10/11/2015 00:49:36 81.26,-150.21 90.63 10/11/2015 00:49:27 81.26,-150.16 90.63 0.93 9
6
